timestamp,surface_pressure_avg,surface_temp_avg,battery_voltage,lat,long
2022-06-25 00:09:01+00:00,251.593,15.67,12.17,47.84626,-54.09684
2022-06-25 00:19:01+00:00,244.2365,15.7,12.17,47.84626,-54.09684
2022-06-25 00:29:01+00:00,239.2931,15.59,12.17,47.84626,-54.09684
2022-06-25 00:39:01+00:00,235.8514,15.48,12.17,47.84626,-54.09684
2022-06-25 00:49:01+00:00,231.8248,15.48,12.17,47.84626,-54.09684
2022-06-25 00:59:01+00:00,225.1797,15.5,12.17,47.84626,-54.09684
2022-06-25 01:09:01+00:00,220.9065,15.45,12.17,47.84626,-54.09684
2022-06-25 01:19:00+00:00,219.1964,15.56,12.17,47.84626,-54.09684
2022-06-25 01:29:00+00:00,216.5831,15.56,12.17,47.84626,-54.09684
2022-06-25 01:39:00+00:00,211.1748,15.59,12.17,47.84626,-54.09684
2022-06-25 01:49:00+00:00,206.5165,15.6,12.17,47.84626,-54.09684
2022-06-25 01:59:00+00:00,205.3664,15.7,12.17,47.84626,-54.09684
2022-06-25 02:09:00+00:00,203.6214,15.7,12.17,47.84626,-54.09684
2022-06-25 02:19:00+00:00,199.2748,15.69,12.09,47.84626,-54.09684
2022-06-25 02:29:00+00:00,197.2798,15.6,12.09,47.84626,-54.09684
2022-06-25 02:39:00+00:00,200.1181,15.6,12.09,47.84626,-54.09684
2022-06-25 02:49:00+00:00,201.6082,15.59,12.09,47.84626,-54.09684
2022-06-25 02:59:00+00:00,199.5048,15.5,12.09,47.84626,-54.09684
2022-06-25 03:09:00+00:00,200.3731,15.4,12.09,47.84626,-54.09684
2022-06-25 03:19:00+00:00,204.6031,15.47,12.09,47.84626,-54.09684
2022-06-25 03:29:00+00:00,204.5064,15.5,12.09,47.84626,-54.09684
2022-06-25 03:39:00+00:00,202.8614,15.36,12.09,47.84626,-54.09684
2022-06-25 03:49:00+00:00,205.2648,15.1,12.09,47.84626,-54.09684
2022-06-25 03:59:00+00:00,207.8981,15.02,12.09,47.84626,-54.09684
2022-06-25 04:09:00+00:00,206.8481,15.1,12.09,47.84626,-54.09684
2022-06-25 04:19:01+00:00,206.5731,15.1,12.09,47.84626,-54.09684
2022-06-25 04:29:01+00:00,210.1731,14.9,12.09,47.84626,-54.09684
2022-06-25 04:39:01+00:00,213.4864,14.8,12.09,47.84626,-54.09684
2022-06-25 04:49:01+00:00,212.5081,14.8,12.09,47.84626,-54.09684
2022-06-25 04:59:01+00:00,213.6165,14.8,12.09,47.84626,-54.09684
2022-06-25 05:09:01+00:00,218.7614,14.7,12.09,47.84626,-54.09684
2022-06-25 05:19:00+00:00,222.5014,14.6,12.09,47.84626,-54.09684
2022-06-25 05:29:00+00:00,224.4415,14.54,12.09,47.84626,-54.09684
2022-06-25 05:39:00+00:00,228.3997,14.52,12.09,47.84626,-54.09684
2022-06-25 05:49:00+00:00,232.2597,15.07,12.09,47.84626,-54.09684
2022-06-25 05:59:00+00:00,236.9015,14.66,12.09,47.84626,-54.09684
2022-06-25 06:09:00+00:00,241.6298,14.3,12.09,47.84626,-54.09684
2022-06-25 06:19:00+00:00,247.7881,14.3,12.09,47.84626,-54.09684
2022-06-25 06:29:00+00:00,252.9264,14.39,12.09,47.84626,-54.09684
2022-06-25 06:39:00+00:00,259.4548,14.28,12.09,47.84626,-54.09684
2022-06-25 06:49:00+00:00,264.7731,14.2,12.09,47.84626,-54.09684
2022-06-25 06:59:00+00:00,271.3765,14.1,12.09,47.84626,-54.09684
2022-06-25 07:09:00+00:00,275.8331,14.1,12.09,47.84626,-54.09684
2022-06-25 07:19:00+00:00,279.8698,14.1,12.09,47.84626,-54.09684
2022-06-25 07:29:00+00:00,282.1714,14.1,12.09,47.84626,-54.09684
2022-06-25 07:39:00+00:00,285.8614,14.02,12.09,47.84626,-54.09684
2022-06-25 07:49:00+00:00,290.5297,14.0,12.09,47.84626,-54.09684
2022-06-25 07:59:00+00:00,294.058,14.0,12.09,47.84626,-54.09684
2022-06-25 08:09:00+00:00,294.9947,14.0,12.09,47.84626,-54.09684
2022-06-25 08:19:00+00:00,296.7314,13.8,12.09,47.84626,-54.09684
2022-06-25 08:29:00+00:00,299.543,13.75,12.09,47.84626,-54.09684
2022-06-25 08:39:00+00:00,302.1497,13.96,12.09,47.84626,-54.09684
2022-06-25 08:49:00+00:00,302.0431,13.99,12.09,47.84626,-54.09684
2022-06-25 08:59:00+00:00,303.3896,13.8,12.09,47.84626,-54.09684
2022-06-25 09:09:00+00:00,305.5197,13.94,12.09,47.84626,-54.09684
2022-06-25 09:19:00+00:00,306.3713,13.9,12.09,47.84626,-54.09684
2022-06-25 09:29:00+00:00,306.2097,13.9,12.09,47.84626,-54.09684
2022-06-25 09:39:00+00:00,307.1213,13.9,12.09,47.84626,-54.09684
2022-06-25 09:49:00+00:00,308.5596,13.98,12.09,47.84626,-54.09684
2022-06-25 09:59:00+00:00,307.1546,14.0,12.09,47.84626,-54.09684
2022-06-25 10:09:00+00:00,304.4264,14.0,12.09,47.84626,-54.09684
2022-06-25 10:19:01+00:00,303.7097,14.0,12.09,47.84626,-54.09684
2022-06-25 10:29:01+00:00,301.5664,14.1,12.09,47.84626,-54.09684
2022-06-25 10:39:01+00:00,297.0197,14.14,12.09,47.84626,-54.09684
2022-06-25 10:49:01+00:00,292.8597,14.1,12.09,47.84626,-54.09684
2022-06-25 10:59:01+00:00,290.9547,14.1,12.09,47.84626,-54.09684
2022-06-25 11:09:01+00:00,286.6047,14.1,12.09,47.84626,-54.09684
2022-06-25 11:19:00+00:00,281.1931,14.1,12.09,47.84626,-54.09684
2022-06-25 11:29:00+00:00,277.4314,14.1,12.09,47.84626,-54.09684
2022-06-25 11:39:00+00:00,273.2264,14.2,12.09,47.84626,-54.09684
2022-06-25 11:49:00+00:00,267.3281,14.3,12.09,47.84626,-54.09684
2022-06-25 11:59:00+00:00,259.6898,14.3,12.09,47.84626,-54.09684
2022-06-25 12:09:00+00:00,253.9498,14.3,12.09,47.84626,-54.09684
2022-06-25 12:19:00+00:00,248.1248,14.3,12.09,47.84626,-54.09684
2022-06-25 12:29:00+00:00,240.5114,14.33,12.09,47.84626,-54.09684
2022-06-25 12:39:00+00:00,232.9964,14.4,12.09,47.84626,-54.09684
2022-06-25 12:49:00+00:00,228.7498,14.45,12.09,47.84626,-54.09684
2022-06-25 12:59:00+00:00,225.7097,14.46,12.09,47.84626,-54.09684
2022-06-25 13:09:00+00:00,222.0748,14.46,12.09,47.84626,-54.09684
2022-06-25 13:19:01+00:00,219.3948,14.48,12.17,47.84626,-54.09684
2022-06-25 13:29:01+00:00,216.3581,14.52,12.17,47.84626,-54.09684
2022-06-25 13:39:01+00:00,211.8148,14.86,12.17,47.84626,-54.09684
2022-06-25 13:49:01+00:00,208.2765,15.49,12.17,47.84626,-54.09684
2022-06-25 13:59:01+00:00,208.1614,15.77,12.17,47.84626,-54.09684
2022-06-25 14:09:01+00:00,207.1714,16.02,12.17,47.84626,-54.09684
2022-06-25 14:19:00+00:00,206.4248,16.1,12.17,47.84626,-54.09684
2022-06-25 14:29:00+00:00,205.6014,16.0,12.17,47.84626,-54.09684
2022-06-25 14:39:00+00:00,204.2181,16.1,12.17,47.84626,-54.09684
2022-06-25 14:49:00+00:00,203.2198,16.0,12.17,47.84626,-54.09684
2022-06-25 14:59:00+00:00,204.5932,15.96,12.17,47.84626,-54.09684
2022-06-25 15:09:00+00:00,204.5198,15.95,12.17,47.84626,-54.09684
2022-06-25 15:19:00+00:00,202.0815,16.08,12.17,47.84626,-54.09684
2022-06-25 15:29:00+00:00,203.5614,16.1,12.17,47.84626,-54.09684
2022-06-25 15:39:00+00:00,207.8048,15.99,12.17,47.84626,-54.09684
2022-06-25 15:49:00+00:00,207.8181,15.9,12.17,47.84626,-54.09684
2022-06-25 15:59:00+00:00,208.5181,15.8,12.17,47.84626,-54.09684
2022-06-25 16:09:00+00:00,212.6848,15.8,12.17,47.84626,-54.09684
2022-06-25 16:19:00+00:00,216.7798,15.8,12.17,47.84626,-54.09684
2022-06-25 16:29:00+00:00,218.2781,15.6,12.17,47.84626,-54.09684
2022-06-25 16:39:00+00:00,221.1665,15.5,12.17,47.84626,-54.09684
2022-06-25 16:49:00+00:00,226.8414,15.5,12.17,47.84626,-54.09684
2022-06-25 16:59:00+00:00,231.0281,15.5,12.17,47.84626,-54.09684
2022-06-25 17:09:00+00:00,232.8181,15.31,12.17,47.84626,-54.09684
2022-06-25 17:19:00+00:00,234.7964,15.4,12.25,47.84626,-54.09684
2022-06-25 17:29:00+00:00,237.1147,15.3,12.25,47.84626,-54.09684
2022-06-25 17:39:00+00:00,240.1598,15.1,12.25,47.84626,-54.09684
2022-06-25 17:49:00+00:00,243.5981,14.9,12.25,47.84626,-54.09684
2022-06-25 17:59:00+00:00,247.4514,14.9,12.25,47.84626,-54.09684
2022-06-25 18:09:00+00:00,251.4464,14.9,12.25,47.84626,-54.09684
2022-06-25 18:19:01+00:00,256.1131,14.9,12.17,47.84626,-54.09684
2022-06-25 18:29:01+00:00,260.4797,14.9,12.17,47.84626,-54.09684
2022-06-25 18:39:01+00:00,262.7247,14.97,12.17,47.84626,-54.09684
2022-06-25 18:49:01+00:00,266.9181,15.17,12.17,47.84626,-54.09684
2022-06-25 18:59:01+00:00,275.3148,15.0,12.17,47.84626,-54.09684
2022-06-25 19:09:01+00:00,283.5547,15.0,12.17,47.84626,-54.09684
2022-06-25 19:19:00+00:00,289.848,15.0,12.17,47.84626,-54.09684
2022-06-25 19:29:00+00:00,297.6213,15.01,12.17,47.84626,-54.09684
2022-06-25 19:39:00+00:00,304.3613,15.1,12.17,47.84626,-54.09684
2022-06-25 19:49:00+00:00,307.278,15.06,12.17,47.84626,-54.09684
2022-06-25 19:59:00+00:00,312.6396,15.1,12.17,47.84626,-54.09684
2022-06-25 20:09:00+00:00,320.2296,14.95,12.17,47.84626,-54.09684
2022-06-25 20:19:00+00:00,324.0713,14.9,12.17,47.84626,-54.09684
2022-06-25 20:29:00+00:00,325.7664,14.9,12.17,47.84626,-54.09684
2022-06-25 20:39:00+00:00,328.533,14.88,12.17,47.84626,-54.09684
2022-06-25 20:49:00+00:00,333.1679,14.9,12.17,47.84626,-54.09684
2022-06-25 20:59:00+00:00,334.048,15.0,12.17,47.84626,-54.09684
2022-06-25 21:09:00+00:00,335.0113,15.0,12.17,47.84626,-54.09684
2022-06-25 21:19:00+00:00,337.0863,14.9,12.09,47.84626,-54.09684
2022-06-25 21:29:00+00:00,338.1913,15.0,12.09,47.84626,-54.09684
2022-06-25 21:39:00+00:00,337.4447,15.0,12.09,47.84626,-54.09684
2022-06-25 21:49:00+00:00,336.3013,15.07,12.09,47.84626,-54.09684
2022-06-25 21:59:00+00:00,337.61300000000006,14.8,12.09,47.84626,-54.09684
2022-06-25 22:09:00+00:00,337.01800000000014,14.74,12.09,47.84626,-54.09684
2022-06-25 22:19:00+00:00,334.4096,14.64,12.17,47.84626,-54.09684
2022-06-25 22:29:00+00:00,333.8863,14.8,12.17,47.84626,-54.09684
2022-06-25 22:39:00+00:00,332.0797,15.0,12.17,47.84626,-54.09684
2022-06-25 22:49:00+00:00,328.9196,15.28,12.17,47.84626,-54.09684
2022-06-25 22:59:00+00:00,328.0013,15.3,12.17,47.84626,-54.09684
2022-06-25 23:09:00+00:00,324.9446,15.2,12.17,47.84626,-54.09684
2022-06-25 23:19:00+00:00,319.913,15.28,12.09,47.84626,-54.09684
2022-06-25 23:29:00+00:00,314.233,15.4,12.09,47.84626,-54.09684
2022-06-25 23:39:00+00:00,308.578,15.49,12.09,47.84626,-54.09684
2022-06-25 23:49:00+00:00,301.5547,15.5,12.09,47.84626,-54.09684
2022-06-25 23:59:00+00:00,295.1347,15.5,12.09,47.84626,-54.09684
